Hourly Weather Barra de Maldonado

Today, 6 May, Thursday

Time Temperature Precipitation Wind Pressure Humidity
00:00 +9°C° 0 mm 5 mps 765 mmHg 67%
01:00 +10°C° 0 mm 5 mps 764 mmHg 66%
02:00 +11°C° 0 mm 6 mps 764 mmHg 66%
03:00 +11°C° 0 mm 6 mps 764 mmHg 67%
04:00 +10°C° 0 mm 6 mps 764 mmHg 68%
05:00 +10°C° 0 mm 7 mps 764 mmHg 69%
06:00 +10°C° 0 mm 7 mps 764 mmHg 68%
07:00 +11°C° 0 mm 7 mps 764 mmHg 66%
08:00 +11°C° 0 mm 7 mps 764 mmHg 65%
09:00 +12°C° 0 mm 7 mps 764 mmHg 63%
10:00 +14°C° 0 mm 7 mps 764 mmHg 61%
11:00 +15°C° 0 mm 8 mps 764 mmHg 59%
12:00 +15°C° 0 mm 8 mps 764 mmHg 60%
13:00 +15°C° 0 mm 8 mps 764 mmHg 62%
14:00 +15°C° 0 mm 8 mps 764 mmHg 64%
15:00 +15°C° 0 mm 7 mps 764 mmHg 65%
16:00 +14°C° 0 mm 7 mps 764 mmHg 66%
17:00 +14°C° 0 mm 7 mps 764 mmHg 67%
18:00 +14°C° 0.1 mm 7 mps 764 mmHg 69%
19:00 +14°C° 0.1 mm 7 mps 764 mmHg 70%
20:00 +14°C° 0.1 mm 6 mps 764 mmHg 72%
21:00 +14°C° 0.1 mm 6 mps 764 mmHg 71%
22:00 +14°C° 0.1 mm 6 mps 764 mmHg 70%
23:00 +14°C° 0.1 mm 6 mps 764 mmHg 68%

Tomorrow, 7 May, Friday

Time Temperature Precipitation Wind Pressure Humidity
00:00 +14°C° 0.1 mm 6 mps 764 mmHg 71%
01:00 +13°C° 0.1 mm 5 mps 764 mmHg 74%
02:00 +13°C° 0.1 mm 5 mps 764 mmHg 77%
03:00 +13°C° 0 mm 5 mps 764 mmHg 76%
04:00 +13°C° 0 mm 5 mps 764 mmHg 74%
05:00 +14°C° 0 mm 5 mps 764 mmHg 73%
06:00 +14°C° 0 mm 5 mps 765 mmHg 73%
07:00 +14°C° 0 mm 5 mps 765 mmHg 74%
08:00 +14°C° 0 mm 5 mps 766 mmHg 75%
09:00 +14°C° 0 mm 5 mps 766 mmHg 72%
10:00 +15°C° 0 mm 5 mps 766 mmHg 69%
11:00 +16°C° 0 mm 5 mps 767 mmHg 66%
12:00 +15°C° 0 mm 4 mps 767 mmHg 66%
13:00 +15°C° 0 mm 4 mps 767 mmHg 66%
14:00 +15°C° 0 mm 4 mps 767 mmHg 66%
15:00 +14°C° 0 mm 3 mps 767 mmHg 70%
16:00 +13°C° 0 mm 3 mps 767 mmHg 73%
17:00 +12°C° 0 mm 2 mps 767 mmHg 77%
18:00 +12°C° 0 mm 2 mps 767 mmHg 77%
19:00 +10°C° 0 mm 2 mps 768 mmHg 77%
20:00 +11°C° 0 mm 1 mps 768 mmHg 77%
21:00 +11°C° 0 mm 1 mps 768 mmHg 77%
22:00 +11°C° 0 mm 1 mps 768 mmHg 77%
23:00 +11°C° 0 mm 1 mps 768 mmHg 77%

Day after tomorrow, 8 May, Saturday

Time Temperature Precipitation Wind Pressure Humidity
00:00 +11°C° 0 mm 1 mps 768 mmHg 78%
01:00 +9°C° 0 mm 2 mps 768 mmHg 78%
02:00 +9°C° 0 mm 2 mps 768 mmHg 79%
03:00 +10°C° 0 mm 1 mps 768 mmHg 80%
04:00 +10°C° 0 mm 1 mps 768 mmHg 80%
05:00 +10°C° 0 mm 1 mps 768 mmHg 81%
06:00 +11°C° 0 mm 1 mps 769 mmHg 78%
07:00 +12°C° 0 mm 1 mps 769 mmHg 76%
08:00 +13°C° 0 mm 1 mps 769 mmHg 73%
09:00 +14°C° 0 mm 1 mps 769 mmHg 71%
10:00 +16°C° 0 mm 1 mps 769 mmHg 68%
11:00 +19°C° 0 mm 1 mps 769 mmHg 66%
12:00 +18°C° 0 mm 2 mps 769 mmHg 65%
13:00 +19°C° 0 mm 3 mps 768 mmHg 65%
14:00 +19°C° 0 mm 4 mps 768 mmHg 65%
15:00 +18°C° 0.1 mm 4 mps 768 mmHg 72%
16:00 +16°C° 0.1 mm 5 mps 767 mmHg 79%
17:00 +14°C° 0.1 mm 5 mps 767 mmHg 86%
18:00 +14°C° 0 mm 5 mps 768 mmHg 88%
19:00 +13°C° 0 mm 5 mps 768 mmHg 91%
20:00 +12°C° 0 mm 5 mps 768 mmHg 93%
21:00 +12°C° 0 mm 5 mps 768 mmHg 92%
22:00 +10°C° 0 mm 5 mps 768 mmHg 92%
23:00 +11°C° 0 mm 4 mps 768 mmHg 91%

9 May, Sunday

Time Temperature Precipitation Wind Pressure Humidity
00:00 +11°C° 0 mm 4 mps 767 mmHg 91%
01:00 +11°C° 0 mm 4 mps 767 mmHg 91%
02:00 +11°C° 0 mm 4 mps 767 mmHg 90%
03:00 +11°C° 0 mm 4 mps 767 mmHg 90%
04:00 +11°C° 0 mm 4 mps 766 mmHg 90%
05:00 +12°C° 0 mm 4 mps 766 mmHg 90%
06:00 +12°C° 0 mm 4 mps 767 mmHg 88%
07:00 +13°C° 0 mm 4 mps 767 mmHg 87%
08:00 +14°C° 0 mm 4 mps 767 mmHg 86%
09:00 +16°C° 0 mm 5 mps 767 mmHg 81%
10:00 +17°C° 0 mm 5 mps 767 mmHg 76%
11:00 +20°C° 0 mm 6 mps 767 mmHg 71%
12:00 +20°C° 0 mm 6 mps 766 mmHg 71%
13:00 +20°C° 0 mm 6 mps 765 mmHg 71%
14:00 +20°C° 0 mm 6 mps 765 mmHg 72%
15:00 +19°C° 0 mm 6 mps 765 mmHg 77%
16:00 +17°C° 0 mm 5 mps 765 mmHg 83%
17:00 +16°C° 0 mm 5 mps 765 mmHg 89%
18:00 +15°C° 0 mm 5 mps 765 mmHg 90%
19:00 +15°C° 0 mm 5 mps 765 mmHg 91%
20:00 +15°C° 0 mm 5 mps 765 mmHg 93%
21:00 +15°C° 0 mm 5 mps 764 mmHg 92%
22:00 +15°C° 0 mm 5 mps 764 mmHg 92%
23:00 +16°C° 0 mm 5 mps 764 mmHg 91%

10 May, Monday

Time Temperature Precipitation Wind Pressure Humidity
00:00 +15°C° 0.1 mm 4 mps 764 mmHg 92%
01:00 +16°C° 0.1 mm 3 mps 763 mmHg 93%
02:00 +16°C° 0.1 mm 2 mps 763 mmHg 95%
03:00 +16°C° 0.2 mm 2 mps 763 mmHg 95%
04:00 +16°C° 0.2 mm 2 mps 763 mmHg 95%
05:00 +16°C° 0.2 mm 2 mps 763 mmHg 95%
06:00 +16°C° 0.2 mm 2 mps 763 mmHg 94%
07:00 +16°C° 0.2 mm 1 mps 763 mmHg 94%
08:00 +16°C° 0.2 mm 1 mps 763 mmHg 93%
09:00 +18°C° 0 mm 1 mps 763 mmHg 91%
10:00 +19°C° 0 mm 1 mps 763 mmHg 88%
11:00 +18°C° 0 mm 2 mps 762 mmHg 86%
12:00 +18°C° 0.1 mm 2 mps 762 mmHg 85%
13:00 +18°C° 0.1 mm 2 mps 762 mmHg 84%
14:00 +19°C° 0.1 mm 2 mps 761 mmHg 84%
15:00 +18°C° 0 mm 2 mps 761 mmHg 86%
16:00 +17°C° 0 mm 2 mps 761 mmHg 88%
17:00 +17°C° 0 mm 2 mps 761 mmHg 91%
18:00 +17°C° 0 mm 2 mps 761 mmHg 90%
19:00 +17°C° 0 mm 2 mps 762 mmHg 89%
20:00 +17°C° 0 mm 3 mps 762 mmHg 89%
21:00 +16°C° 0 mm 3 mps 762 mmHg 89%
22:00 +16°C° 0 mm 3 mps 762 mmHg 90%
23:00 +14°C° 0 mm 3 mps 762 mmHg 90%

11 May, Tuesday

Time Temperature Precipitation Wind Pressure Humidity
00:00 +14°C° 0 mm 3 mps 762 mmHg 90%
01:00 +14°C° 0 mm 3 mps 762 mmHg 91%
02:00 +14°C° 0 mm 4 mps 762 mmHg 91%
03:00 +14°C° 0 mm 4 mps 762 mmHg 91%
04:00 +14°C° 0 mm 4 mps 762 mmHg 92%
05:00 +14°C° 0 mm 4 mps 762 mmHg 92%
06:00 +14°C° 0.1 mm 5 mps 762 mmHg 89%
07:00 +15°C° 0.1 mm 5 mps 763 mmHg 87%
08:00 +16°C° 0.1 mm 6 mps 763 mmHg 85%
09:00 +16°C° 0.2 mm 6 mps 763 mmHg 82%
10:00 +17°C° 0.2 mm 6 mps 763 mmHg 80%
11:00 +17°C° 0.2 mm 7 mps 763 mmHg 77%
12:00 +17°C° 0.1 mm 7 mps 763 mmHg 75%
13:00 +17°C° 0.1 mm 6 mps 763 mmHg 72%
14:00 +17°C° 0.1 mm 6 mps 763 mmHg 70%
15:00 +16°C° 0 mm 5 mps 763 mmHg 69%
16:00 +16°C° 0 mm 5 mps 763 mmHg 67%
17:00 +15°C° 0 mm 5 mps 763 mmHg 66%
18:00 +15°C° 0 mm 5 mps 763 mmHg 68%
19:00 +14°C° 0 mm 4 mps 763 mmHg 69%
20:00 +14°C° 0 mm 4 mps 764 mmHg 70%
21:00 +14°C° 0 mm 4 mps 764 mmHg 68%
22:00 +14°C° 0 mm 4 mps 764 mmHg 65%
23:00 +15°C° 0 mm 4 mps 764 mmHg 62%
Show more